Location: Pinawa
(50.1500°N, 95.8830°W)
Time: 08:26:15
(UTC-06:00)

Amateur Radio Satellites - All Passes

Search period start: 18 December 2014 07:56
Search period end: 19 December 2014 07:56
Location: Pinawa, 50.1500°N, 95.8830°W

Satellite Date Start Highest point End Downlink Frequencies (MHz)
Time Altitude Azimuth
JAS-2 18 Dec 08:01:15 08:04:20 15° 314° (NW) 08:07:16 435.910
SO-50 18 Dec 08:04:51 08:07:22 14° 251° (WSW) 08:09:52 436.795
BRITE-PL 18 Dec 08:10:35 08:13:27 16° 90° (E) 08:16:25 437.365/2234.400
CUTE 1.7 + AOD 2 18 Dec 08:11:42 08:13:52 14° 87° (E) 08:16:02 437.475
SEEDS 18 Dec 08:12:25 08:14:01 12° 86° (E) 08:15:37 437.485
Cubesat XI-IV 18 Dec 08:16:58 08:21:25 28° 300° (WNW) 08:25:52 437.490
UNISAT 6 18 Dec 08:23:34 08:25:13 12° 53° (NE) 08:26:53 437.425
HO-68 18 Dec 08:25:12 08:31:13 28° 92° (E) 08:37:10 435.675
CINEMA 3 18 Dec 08:38:55 08:39:47 10° 85° (E) 08:40:40 145.822/145.860
GOMX 1 18 Dec 08:50:20 08:54:18 28° 94° (E) 08:58:29 467.674
CUTE-I 18 Dec 08:51:51 08:55:09 17° 307° (NW) 08:58:27 437.470
ANTELSAT 18 Dec 08:53:13 08:56:30 21° 60° (ENE) 08:59:51 437.575/2403.000
DUCHIFAT 1 18 Dec 08:56:23 08:58:44 15° 58° (ENE) 09:01:06 145.980
PHONESAT 2.4 18 Dec 09:00:38 09:02:16 13° 198° (SSW) 09:03:54 2401.200-2431.200
QB50P2 18 Dec 09:07:14 09:10:10 19° 60° (ENE) 09:13:08 145.880/145.840
CUSAT 1 18 Dec 09:08:12 09:10:21 14° 78° (ENE) 09:12:49 437.405
BUGSAT 1 18 Dec 09:08:31 09:10:55 15° 59° (ENE) 09:13:18 437.445
AAUSAT CUBESAT 2 18 Dec 09:11:08 09:15:01 33° 96° (E) 09:18:51 437.432
POLYITAN 1 18 Dec 09:14:44 09:17:57 22° 62° (ENE) 09:21:11 437.675
CANX-2 18 Dec 09:14:48 09:19:05 58° 101° (E) 09:23:21 2200.000
NANOSAT C BR1 18 Dec 09:19:16 09:22:35 23° 63° (ENE) 09:25:56 145.865
GONETS M04 18 Dec 09:22:05 09:27:08 16° 315° (NW) 09:32:12
UWE-3 18 Dec 09:22:43 09:25:24 15° 88° (E) 09:28:07 435.000/436.395/437.385
O/OREOS (USA 219) 18 Dec 09:27:21 09:30:39 20° 45° (NE) 09:33:58 437.305
DOVE 4 18 Dec 09:27:59 09:32:27 45° 99° (E) 09:37:09 437.250
FUNcube-1 18 Dec 09:29:00 09:31:33 15° 88° (E) 09:34:05 145.935
TIGRISAT 18 Dec 09:29:28 09:33:33 40° 67° (ENE) 09:37:45 435.000
YUBILEINY 18 Dec 09:32:37 09:39:21 24° 55° (NE) 09:46:03 435.215
QB50P1 18 Dec 09:32:45 09:36:26 30° 65° (ENE) 09:40:08 145.935-145.965
COMPASS 1 18 Dec 09:44:17 09:48:35 79° 103° (ESE) 09:52:51 437.405
DANDE 18 Dec 09:45:41 09:48:42 26° 86° (E) 09:52:29 436.750
CUTE 1.7 + AOD 2 18 Dec 09:46:00 09:50:21 77° 286° (WNW) 09:54:39 437.475
DX 1 18 Dec 09:46:07 09:49:57 29° 96° (E) 09:53:45 434.975-435.025
SEEDS 18 Dec 09:46:09 09:50:29 86° 284° (WNW) 09:54:46 437.485
BRITE-PL 18 Dec 09:47:54 09:52:23 71° 286° (WNW) 09:57:14 437.365/2234.400
MaSat-1 18 Dec 09:52:40 09:54:53 41° 118° (ESE) 09:57:02 437.345
UNISAT 6 18 Dec 09:56:51 10:01:12 74° 73° (ENE) 10:05:42 437.425
POPSAT HIP 1 18 Dec 10:00:33 10:04:40 55° 71° (ENE) 10:08:48 437.405
HO-68 18 Dec 10:12:24 10:19:33 71° 293° (WNW) 10:26:38 435.675
Oscar 11 18 Dec 10:13:03 10:17:26 71° 103° (ESE) 10:21:47 145.826/435.025
CINEMA 3 18 Dec 10:13:05 10:17:44 75° 103° (ESE) 10:22:34 145.822/145.860
CUBEBUG 2 18 Dec 10:14:08 10:18:36 50° 99° (E) 10:23:10 437.445
DELFI C3 18 Dec 10:16:59 10:21:07 68° 102° (ESE) 10:25:13 145.870
UKube-1 18 Dec 10:19:51 10:24:09 61° 102° (ESE) 10:28:26 .
50 SAT 18 Dec 10:20:21 10:23:34 21° 92° (E) 10:26:46 437.505
HUMSAT D 18 Dec 10:21:39 10:25:21 27° 94° (E) 10:29:04 437.325/437.525
ESTCUBE 1 18 Dec 10:23:46 10:25:37 12° 86° (E) 10:27:26 437.505/2401.250
GOMX 1 18 Dec 10:28:15 10:32:34 42° 291° (WNW) 10:37:09 467.674
ANTELSAT 18 Dec 10:28:38 10:32:56 56° 260° (W) 10:37:23 437.575/2403.000
VELOX 1 18 Dec 10:29:24 10:33:18 29° 95° (E) 10:37:10 145.980
DUCHIFAT 1 18 Dec 10:29:52 10:34:04 78° 256° (WSW) 10:38:18 145.980
ZACube-1 18 Dec 10:36:20 10:40:48 61° 101° (E) 10:45:19 437.345
QB50P2 18 Dec 10:41:33 10:45:43 58° 259° (W) 10:49:55 145.880/145.840
BUGSAT 1 18 Dec 10:41:51 10:45:57 70° 257° (WSW) 10:50:02 437.445
AAUSAT CUBESAT 2 18 Dec 10:46:54 10:50:38 30° 294° (WNW) 10:54:20 437.432
CUSAT 1 18 Dec 10:48:48 10:52:28 59° 288° (WNW) 10:57:26 437.405
POLYITAN 1 18 Dec 10:49:33 10:53:37 48° 260° (W) 10:57:45 437.675
CANX-2 18 Dec 10:51:34 10:54:39 19° 299° (WNW) 10:57:44 2200.000
NANOSAT C BR1 18 Dec 10:54:13 10:58:15 44° 261° (W) 11:02:18 145.865
RS-15 18 Dec 10:56:44 11:04:07 21° 99° (E) 11:11:30 29.354- 29.394
UWE-3 18 Dec 10:57:55 11:02:27 75° 286° (WNW) 11:07:04 435.000/436.395/437.385
FUNcube-1 18 Dec 11:03:55 11:08:24 76° 286° (WNW) 11:12:57 145.935
O/OREOS (USA 219) 18 Dec 11:06:05 11:10:36 75° 245° (WSW) 11:15:06 437.305
DOVE 4 18 Dec 11:06:13 11:10:04 27° 296° (WNW) 11:14:06 437.250
TIGRISAT 18 Dec 11:06:50 11:10:28 26° 267° (W) 11:14:12 435.000
QB50P1 18 Dec 11:08:30 11:12:18 32° 264° (W) 11:16:07 145.935-145.965
AISAT 18 Dec 11:10:45 11:15:12 74° 103° (ESE) 11:19:38 437.250
COMPASS 1 18 Dec 11:21:21 11:23:46 15° 302° (WNW) 11:26:10 437.405
DX 1 18 Dec 11:22:17 11:26:14 35° 294° (WNW) 11:30:10 434.975-435.025
SEEDS 18 Dec 11:23:42 11:25:38 13° 304° (NW) 11:27:35 437.485
CUTE 1.7 + AOD 2 18 Dec 11:24:00 11:25:32 12° 305° (NW) 11:27:04 437.475
CUBEBUG 1 18 Dec 11:26:26 11:30:35 43° 99° (E) 11:34:43 437.445
BRITE-PL 18 Dec 11:28:42 11:30:15 12° 305° (NW) 11:31:49 437.365/2234.400
DANDE 18 Dec 11:28:44 11:32:02 30° 297° (WNW) 11:36:17 436.750
YUBILEINY 18 Dec 11:28:52 11:37:38 85° 80° (E) 11:46:21 435.215
UNISAT 6 18 Dec 11:36:11 11:38:35 14° 273° (W) 11:41:02 437.425
POPSAT HIP 1 18 Dec 11:38:02 11:40:55 18° 269° (W) 11:43:49 437.405
Oscar 11 18 Dec 11:50:20 11:53:07 17° 301° (WNW) 11:55:53 145.826/435.025
CINEMA 3 18 Dec 11:51:24 11:54:29 18° 301° (WNW) 11:57:37 145.822/145.860
CUBEBUG 2 18 Dec 11:51:25 11:55:03 24° 297° (WNW) 11:58:45 437.445
DELFI C3 18 Dec 11:53:22 11:55:56 16° 301° (WNW) 11:58:28 145.870
50 SAT 18 Dec 11:55:03 11:59:00 44° 291° (WNW) 12:02:58 437.505
UKube-1 18 Dec 11:56:53 11:59:56 19° 301° (WNW) 12:02:58 .
HUMSAT D 18 Dec 11:57:16 12:01:14 37° 292° (WNW) 12:05:14 437.325/437.525
Oscar 19 18 Dec 11:58:10 12:02:42 33° 63° (ENE) 12:07:17 437.125/150
ESTCUBE 1 18 Dec 11:58:37 12:03:10 89° 285° (WNW) 12:07:40 437.505/2401.250
HO-68 18 Dec 12:01:16 12:06:07 20° 314° (NW) 12:10:58 435.675
VELOX 1 18 Dec 12:05:54 12:09:56 36° 294° (WNW) 12:13:58 145.980
ITAMSAT 1 18 Dec 12:09:27 12:13:03 19° 56° (NE) 12:16:38 435.822/435.867
ZACube-1 18 Dec 12:13:33 12:16:47 20° 299° (WNW) 12:20:04 437.345
SWISSCUBE 18 Dec 12:28:26 12:29:32 11° 85° (E) 12:30:39 437.505
UWE-3 18 Dec 12:36:26 12:38:15 12° 305° (NW) 12:40:06 435.000/436.395/437.385
FUNcube-1 18 Dec 12:42:13 12:44:02 12° 305° (NW) 12:45:52 145.935
SPROUT 18 Dec 12:44:38 12:48:56 70° 102° (ESE) 12:53:13 437.525
AISAT 18 Dec 12:48:31 12:51:19 17° 302° (WNW) 12:54:07 437.250
TISAT 1 18 Dec 12:49:41 12:53:56 82° 104° (ESE) 12:58:10 437.305
BEESAT 18 Dec 12:52:19 12:55:27 17° 89° (E) 12:58:34 436.000
CUBEBUG 1 18 Dec 13:03:15 13:06:46 25° 297° (WNW) 13:10:16 437.445
RS-15 18 Dec 13:03:37 13:14:27 75° 123° (ESE) 13:25:25 29.354- 29.394
AO-7 18 Dec 13:10:24 13:16:28 23° 41° (NE) 13:22:33 29.400- 29.500
BEESAT 3 18 Dec 13:24:37 13:26:46 14° 111° (ESE) 13:28:56 437.485
YUBILEINY 18 Dec 13:26:47 13:33:24 25° 283° (WNW) 13:40:01 435.215
Gurwin Techsat 1B 18 Dec 13:27:26 13:32:30 48° 67° (ENE) 13:37:35 435.225
HORYU 2 18 Dec 13:32:27 13:35:52 22° 60° (ENE) 13:39:18 437.375
AUBIESAT-1 18 Dec 13:33:58 13:36:19 14° 92° (E) 13:38:34 437.475
PCSat 18 Dec 13:34:41 13:37:57 16° 105° (ESE) 13:41:13 145.827
ESTCUBE 1 18 Dec 13:37:01 13:39:23 14° 304° (NW) 13:41:44 437.505/2401.250
Oscar 19 18 Dec 13:37:04 13:41:56 42° 262° (W) 13:46:52 437.125/150
ITAMSAT 1 18 Dec 13:46:46 13:51:57 81° 255° (WSW) 13:57:11 435.822/435.867
M-CUBED/EXP-1 PRIME 18 Dec 13:56:44 14:00:30 25° 98° (E) 14:04:01 437.505
BEESAT 2 18 Dec 14:00:35 14:04:03 27° 117° (ESE) 14:07:35 435.950
ITUPSAT 1 18 Dec 14:02:52 14:07:40 69° 103° (ESE) 14:12:24 437.325
SWISSCUBE 18 Dec 14:03:26 14:08:15 76° 104° (ESE) 14:13:00 437.505
SPROUT 18 Dec 14:21:50 14:24:33 17° 301° (WNW) 14:27:17 437.525
TISAT 1 18 Dec 14:26:58 14:29:12 14° 303° (WNW) 14:31:26 437.305
BEESAT 18 Dec 14:29:02 14:33:49 70° 288° (WNW) 14:38:33 436.000
ISS 18 Dec 14:34:36 14:36:32 15° 139° (SE) 14:38:29 145.825
KKS-1 18 Dec 14:35:21 14:39:28 35° 97° (E) 14:43:34 437.445
STARS 18 Dec 14:37:13 14:40:57 26° 94° (E) 14:44:40 437.465
JAS-2 18 Dec 14:46:32 14:52:13 25° 55° (NE) 14:57:30 435.910
AIST 2 18 Dec 14:53:17 14:57:17 41° 121° (ESE) 15:01:21 435.215
AO-7 18 Dec 14:59:41 15:07:56 70° 64° (ENE) 15:16:15 29.400- 29.500
BEESAT 3 18 Dec 15:00:12 15:04:20 86° 310° (NW) 15:08:33 437.485
AUBIESAT-1 18 Dec 15:07:22 15:11:57 79° 292° (WNW) 15:16:07 437.475
HORYU 2 18 Dec 15:07:50 15:12:12 54° 259° (W) 15:16:38 437.375
Gurwin Techsat 1B 18 Dec 15:08:04 15:12:40 30° 266° (W) 15:17:19 435.225
PCSat 18 Dec 15:15:09 15:20:35 86° 125° (SE) 15:26:03 145.827
RS-15 18 Dec 15:17:06 15:27:37 50° 332° (NNW) 15:38:24 29.354- 29.394
GONETS M04 18 Dec 15:26:59 15:34:16 28° 58° (ENE) 15:41:26
ITAMSAT 1 18 Dec 15:30:00 15:32:18 13° 274° (W) 15:34:36 435.822/435.867
M-CUBED/EXP-1 PRIME 18 Dec 15:31:21 15:35:45 45° 298° (WNW) 15:39:48 437.505
BEESAT 2 18 Dec 15:38:05 15:42:07 48° 317° (NW) 15:46:13 435.950
ITUPSAT 1 18 Dec 15:41:41 15:45:05 20° 302° (WNW) 15:48:28 437.325
SWISSCUBE 18 Dec 15:42:22 15:45:34 18° 303° (WNW) 15:48:45 437.505
BEESAT 18 Dec 16:08:50 16:10:49 13° 308° (NW) 16:12:49 436.000
ISS 18 Dec 16:09:22 16:12:38 61° 157° (SSE) 16:15:54 145.825
KKS-1 18 Dec 16:12:08 16:16:04 31° 295° (WNW) 16:20:00 437.445
STARS 18 Dec 16:13:25 16:17:35 41° 293° (WNW) 16:21:44 437.465
Cubesat XI-IV 18 Dec 16:24:41 16:28:56 25° 59° (ENE) 16:33:11 437.490
JAS-2 18 Dec 16:28:54 16:36:34 89° 74° (ENE) 16:43:33 435.910
AIST 2 18 Dec 16:32:02 16:35:59 35° 322° (NW) 16:40:00 435.215
BEESAT 3 18 Dec 16:39:58 16:43:08 21° 331° (NNW) 16:46:20 437.485
AIST 1 18 Dec 16:40:05 16:44:11 40° 92° (E) 16:48:16
AUBIESAT-1 18 Dec 16:43:41 16:46:06 14° 313° (NW) 16:48:27 437.475
AO-7 18 Dec 16:54:05 17:01:22 33° 266° (W) 17:08:44 29.400- 29.500
CUTE-I 18 Dec 16:57:42 17:02:40 42° 65° (ENE) 17:07:38 437.470
PCSat 18 Dec 17:00:09 17:04:41 26° 327° (NNW) 17:09:14 145.827
MOZHAYETS 4 18 Dec 17:04:06 17:08:33 43° 98° (E) 17:12:57
HO-68 18 Dec 17:17:39 17:19:24 11° 33° (NNE) 17:21:08 435.675
BEESAT 2 18 Dec 17:18:48 17:21:21 16° 339° (NNW) 17:23:55 435.950
GONETS M04 18 Dec 17:23:27 17:32:18 85° 262° (W) 17:41:01
RS-15 18 Dec 17:32:57 17:43:01 38° 5° (N) 17:53:24 29.354- 29.394
ISS 18 Dec 17:45:58 17:49:15 66° 356° (N) 17:52:32 145.825
MaSat-1 18 Dec 17:46:47 17:48:35 19° 50° (NE) 17:50:26 437.345
Cubesat XI-IV 18 Dec 18:03:22 18:08:39 62° 258° (WSW) 18:13:57 437.490
AIST 2 18 Dec 18:13:32 18:15:49 14° 344° (NNW) 18:18:07 435.215
JAS-2 18 Dec 18:16:38 18:22:18 23° 272° (W) 18:27:40 435.910
AIST 1 18 Dec 18:18:23 18:22:00 25° 292° (WNW) 18:25:37
CUBESAT XI-V 18 Dec 18:21:03 18:24:44 23° 92° (E) 18:28:23 437.345
BEESAT 3 18 Dec 18:21:37 18:22:52 11° 355° (N) 18:24:07 437.485
DANDE 18 Dec 18:37:17 18:40:55 14° 52° (NE) 18:44:52 436.750
CUTE-I 18 Dec 18:38:01 18:42:50 34° 264° (W) 18:47:40 437.470
PRISM 18 Dec 18:38:50 18:42:59 60° 102° (ESE) 18:47:05 437.425
CANX-2 18 Dec 18:40:00 18:41:23 11° 55° (NE) 18:42:46 2200.000
MOZHAYETS 4 18 Dec 18:41:42 18:45:36 27° 297° (WNW) 18:49:28
PCSat 18 Dec 18:47:20 18:50:02 14° 352° (N) 18:52:45 145.827
HO-68 18 Dec 18:58:44 19:05:08 37° 57° (ENE) 19:11:31 435.675
BEESAT 2 18 Dec 19:00:05 19:01:20 11° 3° (N) 19:02:34 435.950
DOVE 4 18 Dec 19:05:14 19:06:03 11° 54° (NE) 19:06:53 437.250
COMPASS 1 18 Dec 19:07:12 19:09:26 14° 57° (ENE) 19:11:39 437.405
SEEDS 18 Dec 19:09:05 19:11:48 17° 59° (ENE) 19:14:32 437.485
CUTE 1.7 + AOD 2 18 Dec 19:09:12 19:12:13 19° 60° (ENE) 19:15:14 437.475
STRAND 1 18 Dec 19:14:20 19:19:23 57° 101° (E) 19:24:23 437.568
MaSat-1 18 Dec 19:20:15 19:21:57 17° 247° (WSW) 19:23:42 437.345
GONETS M04 18 Dec 19:21:41 19:27:49 22° 285° (WNW) 19:33:55
ISS 18 Dec 19:22:40 19:25:59 87° 194° (SSW) 19:29:15 145.825
BRITE-PL 18 Dec 19:26:31 19:30:01 27° 65° (ENE) 19:33:32 437.365/2234.400
CUSAT 1 18 Dec 19:38:03 19:44:29 35° 66° (ENE) 19:51:55 437.405
DELFI C3 18 Dec 19:38:06 19:39:26 11° 55° (NE) 19:40:46 145.870
Oscar 11 18 Dec 19:38:39 19:41:02 15° 57° (ENE) 19:43:25 145.826/435.025
CUBEBUG 2 18 Dec 19:44:40 19:45:39 11° 53° (NE) 19:46:38 437.445
CINEMA 3 18 Dec 19:44:59 19:47:31 16° 58° (ENE) 19:50:06 145.822/145.860
UKube-1 18 Dec 19:45:50 19:48:09 14° 56° (NE) 19:50:29 .
RS-15 18 Dec 19:47:01 19:58:01 61° 37° (NE) 20:09:28 29.354- 29.394
AIST 2 18 Dec 19:54:26 19:56:14 12° 9° (N) 19:58:03 435.215
CUBESAT XI-V 18 Dec 19:57:59 20:02:26 49° 291° (WNW) 20:06:51 437.345
BEESAT 3 18 Dec 20:00:23 20:02:47 15° 19° (NNE) 20:05:11 437.485
GOMX 1 18 Dec 20:03:44 20:07:40 44° 69° (ENE) 20:11:40 467.674
ZACube-1 18 Dec 20:03:59 20:05:43 12° 55° (NE) 20:07:28 437.345
AAUSAT CUBESAT 2 18 Dec 20:06:51 20:10:49 41° 69° (ENE) 20:14:50 437.432
CANX-2 18 Dec 20:12:18 20:16:33 75° 74° (ENE) 20:20:53 2200.000
PRISM 18 Dec 20:15:17 20:18:07 18° 301° (WNW) 20:20:56 437.425
DANDE 18 Dec 20:18:56 20:25:48 53° 72° (ENE) 20:34:00 436.750
UWE-3 18 Dec 20:24:51 20:28:01 21° 61° (ENE) 20:31:15 435.000/436.395/437.385
FUNcube-1 18 Dec 20:29:46 20:32:51 20° 61° (ENE) 20:35:59 145.935
PCSat 18 Dec 20:32:20 20:35:46 17° 19° (NNE) 20:39:12 145.827
BEESAT 2 18 Dec 20:38:03 20:41:10 20° 27° (NNE) 20:44:16 435.950
AISAT 18 Dec 20:38:50 20:41:45 18° 58° (ENE) 20:44:40 437.250
DOVE 4 18 Dec 20:38:56 20:43:03 74° 74° (ENE) 20:47:17 437.250
COMPASS 1 18 Dec 20:40:19 20:44:33 84° 256° (WSW) 20:48:51 437.405
SEEDS 18 Dec 20:42:56 20:47:10 68° 258° (WSW) 20:51:27 437.485
CUTE 1.7 + AOD 2 18 Dec 20:43:32 20:47:45 59° 259° (W) 20:52:01 437.475
HO-68 18 Dec 20:45:28 20:52:33 60° 257° (WSW) 20:59:40 435.675
SO-50 18 Dec 20:45:34 20:46:34 11° 107° (ESE) 20:47:34 436.795
DX 1 18 Dec 20:46:08 20:50:18 47° 69° (ENE) 20:54:29 434.975-435.025
STRAND 1 18 Dec 20:54:08 20:58:15 25° 300° (WNW) 21:02:21 437.568
CUBEBUG 1 18 Dec 20:55:09 20:55:55 10° 53° (NE) 20:56:41 437.445
ISS 18 Dec 20:59:33 21:02:17 24° 215° (SW) 21:05:00 145.825
BRITE-PL 18 Dec 21:04:42 21:08:30 34° 264° (W) 21:12:19 437.365/2234.400
DELFI C3 18 Dec 21:09:53 21:14:00 80° 75° (ENE) 21:18:10 145.870
Oscar 11 18 Dec 21:12:16 21:16:36 84° 256° (WSW) 21:21:00 145.826/435.025
50 SAT 18 Dec 21:13:24 21:16:44 26° 64° (ENE) 21:20:06 437.505
CUBEBUG 2 18 Dec 21:17:22 21:21:32 72° 73° (ENE) 21:25:50 437.445
HUMSAT D 18 Dec 21:18:32 21:22:18 35° 67° (ENE) 21:26:07 437.325/437.525
UKube-1 18 Dec 21:19:22 21:23:43 86° 255° (WSW) 21:28:05 .
CINEMA 3 18 Dec 21:20:04 21:24:13 70° 258° (WSW) 21:28:30 145.822/145.860
CUSAT 1 18 Dec 21:20:50 21:27:59 67° 263° (W) 21:36:19 437.405
ESTCUBE 1 18 Dec 21:27:28 21:30:54 22° 61° (ENE) 21:34:21 437.505/2401.250
VELOX 1 18 Dec 21:31:41 21:35:56 47° 69° (ENE) 21:40:11 145.980
AIST 2 18 Dec 21:32:40 21:36:18 25° 32° (NNE) 21:39:55 435.215
ZACube-1 18 Dec 21:37:12 21:41:23 84° 75° (ENE) 21:45:42 437.345
BEESAT 3 18 Dec 21:37:59 21:42:01 43° 42° (NE) 21:46:00 437.485
GOMX 1 18 Dec 21:42:58 21:46:06 21° 268° (W) 21:49:15 467.674
AAUSAT CUBESAT 2 18 Dec 21:43:16 21:46:40 23° 267° (W) 21:50:06 437.432
UNISAT 6 18 Dec 21:46:07 21:48:08 13° 86° (E) 21:50:09 437.425
CANX-2 18 Dec 21:50:53 21:53:03 14° 273° (W) 21:55:14 2200.000
RS-15 18 Dec 21:59:43 22:10:32 58° 243° (WSW) 22:21:50 29.354- 29.394
UWE-3 18 Dec 22:00:12 22:04:16 50° 261° (W) 22:08:27 435.000/436.395/437.385
DANDE 18 Dec 22:02:35 22:09:16 44° 268° (W) 22:17:07 436.750
FUNcube-1 18 Dec 22:04:47 22:08:52 52° 260° (W) 22:13:04 145.935
SPROUT 18 Dec 22:09:56 22:12:09 14° 57° (ENE) 22:14:22 437.525
DUCHIFAT 1 18 Dec 22:12:12 22:14:08 13° 88° (E) 22:16:05 145.980
TISAT 1 18 Dec 22:13:06 22:15:37 16° 58° (ENE) 22:18:09 437.305
AISAT 18 Dec 22:13:30 22:17:55 69° 257° (WSW) 22:22:20 437.250
PCSat 18 Dec 22:15:28 22:20:39 42° 43° (NE) 22:25:47 145.827
BEESAT 2 18 Dec 22:15:52 22:20:06 77° 49° (NE) 22:24:17 435.950
ANTELSAT 18 Dec 22:16:29 22:20:17 24° 92° (E) 22:24:05 437.575/2403.000
DOVE 4 18 Dec 22:19:38 22:21:27 13° 273° (W) 22:23:18 437.250
COMPASS 1 18 Dec 22:20:47 22:21:00 10° 275° (W) 22:21:13 437.405
BUGSAT 1 18 Dec 22:21:38 22:23:16 12° 88° (E) 22:24:55 437.445
SO-50 18 Dec 22:21:38 22:26:10 68° 126° (SE) 22:30:53 436.795
DX 1 18 Dec 22:23:25 22:26:48 22° 267° (W) 22:30:11 434.975-435.025
QB50P2 18 Dec 22:23:30 22:26:20 17° 90° (E) 22:29:10 145.880/145.840
CUBEBUG 1 18 Dec 22:27:08 22:31:28 66° 72° (ENE) 22:35:48 437.445
POLYITAN 1 18 Dec 22:31:17 22:34:30 20° 92° (E) 22:37:42 437.675
NANOSAT C BR1 18 Dec 22:35:20 22:38:38 22° 92° (E) 22:41:56 145.865
HO-68 18 Dec 22:39:09 22:41:48 12° 278° (W) 22:44:29 435.675
YUBILEINY 18 Dec 22:42:18 22:48:13 21° 74° (ENE) 22:54:07 435.215
50 SAT 18 Dec 22:48:07 22:51:50 36° 263° (W) 22:55:37 437.505
DELFI C3 18 Dec 22:48:13 22:49:51 12° 273° (W) 22:51:30 145.870
QB50P1 18 Dec 22:49:05 22:52:49 29° 95° (E) 22:56:33 145.935-145.965
Oscar 11 18 Dec 22:52:40 22:53:30 10° 275° (W) 22:54:20 145.826/435.025
TIGRISAT 18 Dec 22:52:54 22:57:26 48° 99° (E) 23:02:00 435.000
HUMSAT D 18 Dec 22:54:38 22:58:10 27° 266° (W) 23:01:47 437.325/437.525
CUBEBUG 2 18 Dec 22:56:40 22:58:49 14° 273° (W) 23:01:00 437.445
UKube-1 18 Dec 22:59:27 23:00:34 11° 273° (W) 23:01:42 .
ESTCUBE 1 18 Dec 23:02:59 23:07:27 56° 259° (W) 23:11:56 437.505/2401.250
CUSAT 1 18 Dec 23:05:47 23:10:08 17° 280° (W) 23:14:50 437.405
VELOX 1 18 Dec 23:09:18 23:12:46 22° 267° (W) 23:16:14 145.980
AIST 2 18 Dec 23:11:02 23:15:21 70° 233° (SW) 23:19:35 435.215
BEESAT 3 18 Dec 23:16:25 23:20:05 30° 242° (WSW) 23:23:43 437.485
ZACube-1 18 Dec 23:16:55 23:18:26 12° 274° (W) 23:19:57 437.345
POPSAT HIP 1 18 Dec 23:17:13 23:21:25 54° 101° (E) 23:25:36 437.405
M-CUBED/EXP-1 PRIME 18 Dec 23:17:17 23:20:01 15° 48° (NE) 23:22:46 437.505
UNISAT 6 18 Dec 23:20:54 23:25:37 87° 105° (ESE) 23:30:21 437.425
ITUPSAT 1 18 Dec 23:38:06 23:41:42 22° 59° (ENE) 23:45:19 437.325
SWISSCUBE 18 Dec 23:38:18 23:42:03 23° 60° (ENE) 23:45:47 437.505
SPROUT 18 Dec 23:43:22 23:47:39 85° 256° (WSW) 23:51:58 437.525
DUCHIFAT 1 18 Dec 23:46:18 23:50:34 79° 286° (WNW) 23:54:49 145.980
TISAT 1 18 Dec 23:46:46 23:50:58 72° 257° (WSW) 23:55:11 437.305
ANTELSAT 18 Dec 23:52:47 23:57:19 50° 291° (WNW) 00:01:52 437.575/2403.000
BEESAT 2 18 Dec 23:55:15 23:57:50 16° 248° (WSW) 00:00:24 435.950
BUGSAT 1 18 Dec 23:55:15 23:59:19 76° 286° (WNW) 00:03:22 437.445
QB50P2 18 Dec 23:58:26 00:02:38 59° 289° (WNW) 00:06:50 145.880/145.840
PCSat 18 Dec 23:58:59 00:04:07 43° 244° (WSW) 00:09:11 145.827
BEESAT 19 Dec 00:03:02 00:07:19 34° 64° (ENE) 00:11:37 436.000
SO-50 19 Dec 00:03:04 00:07:08 29° 328° (NNW) 00:11:19 436.795
CUBEBUG 1 19 Dec 00:05:36 00:08:18 16° 271° (W) 00:11:00 437.445
POLYITAN 1 19 Dec 00:06:35 00:10:43 49° 290° (WNW) 00:14:52 437.675
NANOSAT C BR1 19 Dec 00:10:41 00:14:45 45° 291° (WNW) 00:18:48 145.865
RS-15 19 Dec 00:15:04 00:20:18 15° 266° (W) 00:25:39 29.354- 29.394
QB50P1 19 Dec 00:24:54 00:28:45 34° 294° (WNW) 00:32:35 145.935-145.965
AUBIESAT-1 19 Dec 00:25:34 00:30:08 42° 61° (ENE) 00:34:45 437.475
TIGRISAT 19 Dec 00:30:08 00:33:57 26° 298° (WNW) 00:37:49 435.000
YUBILEINY 19 Dec 00:34:56 00:43:40 82° 97° (E) 00:52:25 435.215
M-CUBED/EXP-1 PRIME 19 Dec 00:49:23 00:54:14 71° 67° (ENE) 00:59:09 437.505
AIST 2 19 Dec 00:52:45 00:53:09 10° 252° (WSW) 00:53:33 435.215
POPSAT HIP 1 19 Dec 00:53:54 00:56:59 20° 299° (WNW) 01:00:05 437.405
UNISAT 6 19 Dec 00:59:00 01:01:47 16° 303° (WNW) 01:04:35 437.425
ITUPSAT 1 19 Dec 01:14:25 01:19:12 63° 258° (WSW) 01:23:59 437.325
SWISSCUBE 19 Dec 01:14:51 01:19:34 57° 259° (W) 01:24:19 437.505
O/OREOS (USA 219) 19 Dec 01:22:51 01:27:09 51° 111° (ESE) 01:31:30 437.305
SPROUT 19 Dec 01:23:39 01:24:26 10° 274° (W) 01:25:14 437.525
DUCHIFAT 1 19 Dec 01:24:13 01:25:43 12° 305° (NW) 01:27:13 145.980
BUGSAT 1 19 Dec 01:33:16 01:34:06 11° 305° (NW) 01:34:57 437.445
KKS-1 19 Dec 01:38:03 01:42:23 56° 70° (ENE) 01:46:45 437.445
STARS 19 Dec 01:38:49 01:42:55 40° 67° (ENE) 01:47:03 437.465
Gurwin Techsat 1B 19 Dec 01:40:35 01:42:56 13° 85° (E) 01:45:17 435.225
BEESAT 19 Dec 01:40:42 01:45:08 37° 263° (W) 01:49:35 436.000
Oscar 19 19 Dec 01:43:30 01:48:34 48° 99° (E) 01:53:35 437.125/150
SO-50 19 Dec 01:46:26 01:49:12 15° 352° (N) 01:52:00 436.795
ITAMSAT 1 19 Dec 01:55:23 01:59:40 26° 93° (E) 02:03:55 435.822/435.867
AUBIESAT-1 19 Dec 02:00:48 02:05:08 33° 259° (W) 02:09:33 437.475
M-CUBED/EXP-1 PRIME 19 Dec 02:26:12 02:29:41 19° 265° (W) 02:33:12 437.505
YUBILEINY 19 Dec 02:34:18 02:41:35 29° 301° (WNW) 02:48:53 435.215
MOZHAYETS 4 19 Dec 02:36:58 02:38:41 12° 53° (NE) 02:40:25
AIST 1 19 Dec 02:43:09 02:46:06 18° 65° (ENE) 02:49:02
HORYU 2 19 Dec 02:55:16 02:58:47 22° 92° (E) 03:02:15 437.375
AO-7 19 Dec 02:57:46 03:02:30 16° 84° (E) 03:07:13 29.400- 29.500
O/OREOS (USA 219) 19 Dec 03:03:07 03:06:50 25° 311° (NW) 03:10:34 437.305
STARS 19 Dec 03:15:53 03:19:32 26° 266° (W) 03:23:14 437.465
KKS-1 19 Dec 03:16:15 03:19:24 19° 269° (W) 03:22:34 437.445
Gurwin Techsat 1B 19 Dec 03:18:27 03:23:48 79° 104° (ESE) 03:29:06 435.225
Oscar 19 19 Dec 03:23:15 03:27:42 30° 298° (WNW) 03:32:09 437.125/150
SO-50 19 Dec 03:28:17 03:31:34 18° 17° (NNE) 03:34:53 436.795
ITAMSAT 1 19 Dec 03:34:26 03:39:28 53° 292° (WNW) 03:44:28 435.822/435.867
PRISM 19 Dec 04:01:23 04:03:13 13° 55° (NE) 04:05:03 437.425
MOZHAYETS 4 19 Dec 04:10:27 04:15:05 70° 73° (ENE) 04:19:44
AIST 1 19 Dec 04:19:57 04:24:10 57° 265° (W) 04:28:20
HORYU 2 19 Dec 04:31:20 04:35:44 51° 291° (WNW) 04:40:06 437.375
GONETS M04 19 Dec 04:35:58 04:42:36 25° 77° (ENE) 04:49:13
AO-7 19 Dec 04:48:34 04:56:57 67° 106° (ESE) 05:05:15 29.400- 29.500
STRAND 1 19 Dec 04:57:23 05:01:19 23° 58° (ENE) 05:05:15 437.568
Gurwin Techsat 1B 19 Dec 04:59:24 05:03:11 20° 304° (NW) 05:06:58 435.225
VERMONT LUNAR 19 Dec 05:05:11 05:07:03 14° 166° (SSE) 05:08:55 437.305
SO-50 19 Dec 05:08:37 05:13:17 45° 40° (NE) 05:18:00 436.795
PHONESAT 2.4 19 Dec 05:10:57 05:12:33 13° 162° (SSE) 05:14:10 2401.200-2431.200
CUTE-I 19 Dec 05:12:43 05:13:49 11° 83° (E) 05:14:56 437.470
ITAMSAT 1 19 Dec 05:16:38 05:17:52 11° 312° (NW) 05:19:05 435.822/435.867
JAS-2 19 Dec 05:19:34 05:25:20 51° 98° (E) 05:30:31 435.910
CUBESAT XI-V 19 Dec 05:28:51 05:33:10 38° 67° (ENE) 05:37:29 437.345
PRISM 19 Dec 05:33:51 05:38:06 85° 74° (ENE) 05:42:21 437.425
MOZHAYETS 4 19 Dec 05:49:49 05:52:48 17° 272° (W) 05:55:49
Cubesat XI-IV 19 Dec 06:16:00 06:20:56 37° 97° (E) 06:25:50 437.490
GONETS M04 19 Dec 06:29:26 06:38:18 88° 279° (W) 06:47:13
STRAND 1 19 Dec 06:35:01 06:40:06 65° 258° (WSW) 06:45:12 437.568
AO-7 19 Dec 06:41:50 06:49:19 38° 307° (NW) 06:56:47 29.400- 29.500
VERMONT LUNAR 19 Dec 06:42:12 06:44:36 17° 183° (S) 06:47:01 437.305
PHONESAT 2.4 19 Dec 06:47:53 06:50:26 18° 179° (S) 06:52:59 2401.200-2431.200
SO-50 19 Dec 06:49:19 06:53:50 38° 240° (WSW) 06:58:22 436.795
CUTE-I 19 Dec 06:49:36 06:54:55 68° 103° (ESE) 07:00:12 437.470
JAS-2 19 Dec 07:05:05 07:10:10 30° 301° (WNW) 07:14:51 435.910
CUBESAT XI-V 19 Dec 07:06:35 07:10:42 30° 266° (W) 07:14:49 437.345
PRISM 19 Dec 07:12:38 07:14:14 12° 273° (W) 07:15:50 437.425
